Accueil
METAR-TAF:

METAR-TAF

Aéroports :

Førde, Norvège

latitude: 61-27N, longitude: 005-52E, altitude: 150 m

Observation

Le bulletin a été fait il y a 36 minutes, à 07:50 UTC
Vent 6 kt de sud-ouest
Température 8°C
Humidité 71%
Pression 1031 hPa
Visibilité 10 km ou plus
Quelques nuages à une hauteur de 4000 ft
Nuages épars à une hauteur de 13000 ft

METAR: ENBL 230750Z 23006KT 9999 FEW040 SCT130 08/03 Q1031

Heure: 09:26 (08:26 UTC)


TAF: absent

Observations et prévisions météorologiques de plus de 4000 aéroports (messages METAR et TAF).

Les stations disponibles sont représentées par des disques jaunes et rouges sur la carte.

Passer la souris dessus pour voir le nom de la station.

Cliquer dessus pour voir les observations et prévisions météorologiques.

Pour changer de carte: cliquez sur les boutons verts avec une croix noire pour zoomer, sur le bouton vert avec un tiret pour effectuer un zoom arrière, ou sur les flèches vertes pour les cartes adjacentes.


METAR-TAF: